Weather in Rameshki

Russia / Nizhny Novgorod Oblast'     57°17′27″N   44°18′09″E
temp.,
°C
wind,
m/s
gust,
m/s
humid.,
%
clouds,
%
prec.,
mm/h
press.,
hPa
HPBL,
m
11 april, sun
sun1100:00−4sw119934 0.0 102730
03:00−3ssw249826 0.0 102864
06:00−2s25935 0.0 102893
09:00+5sw35720 0.0 1029317
12:00+9sw35630 0.0 1030697
15:00+10wsw34650 0.0 1031775
18:00+6s11934 0.0 103210
21:000sw119527 0.0 103410
12 april, mon
mon1200:00−1se119692 0.0 103510
03:00−1ese119591 0.0 103610
06:000se259339 0.0 103768
09:00+8ese377799 0.0 1037349
12:00+11ese4668100 0.0 1036722
15:00+12ese4666100 0.0 1035875
18:00+9ese3978100 0.0 1033339
21:00+6se41185100 0.0 1033358
13 april, tue
tue1300:00+5se31095100 0.0 1032289
03:00+5se3997100 0.0 1031210
06:00+5sse3996100 0.0 1030202
09:00+12s487596 0.0 1028327
12:00+17s475843 0.0 1027754
15:00+18s475683 0.0 10261150
18:00+14sse396779 0.0 1025259
21:00+9s3107837 0.0 1025176
14 april, wed
wed1400:00+8s398368 0.0 1024169
03:00+7s28835 0.0 1024123
06:00+7s310845 0.0 1023178
09:00+14ssw485758 0.0 1022382
12:00+17ssw5848100 0.0 1021750
15:00+18ssw4744100 0.0 10211094
18:00+15s2658100 0.0 1019124
21:00+11s21068100 0.0 1019185
15 april, thu
thu1500:00+10ssw2772100 0.0 1018125
03:00+8sw2477100 0.0 101859
06:00+8w2477100 0.0 101795
09:00+11n2281100 0.0 1017348
12:00+8n3596100 2.4 1017256
15:00+6nne3695100 6.9 1017415
18:00+5n3892100 0.1 1017518
21:00+5nne3895100 0.9 1016825